Cross City, FL

4:53 PM EDT on September 29, 2016 (GMT -0400)
Cross City

Weather History for KCTY - January, 2014

Change the Weather History Date:

Sunday, January 5, 2014

  Actual Average Record
Temperature  
Mean Temperature 64 °F 52 °F  
Max Temperature 78 °F 65 °F 78 °F (2004)
Min Temperature 50 °F 40 °F 19 °F (1999)
Degree Days  
Heating Degree Days 1 13  
Month to date heating degree days 66 65  
Since 1 July heating degree days 381 570  
Cooling Degree Days 0 0  
Month to date cooling degree days 0 0  
Year to date cooling degree days 0 0  
Growing Degree Days 14 (Base 50)    
Moisture  
Dew Point 57 °F    
Average Humidity 85    
Maximum Humidity 100    
Minimum Humidity 60    
Precipitation  
Precipitation 0.00 in 0.12 in 1.03 in (2011)
Month to date precipitation 1.86 0.59  
Year to date precipitation 1.86 0.59  
Sea Level Pressure  
Sea Level Pressure 30.02 in    
Wind  
Wind Speed 4 mph (South)    
Max Wind Speed 12 mph    
Max Gust Speed 23 mph    
T = Trace of Precipitation, MM = Missing Value Source: NWS Daily Summary

Daily Weather History Graph

Daily Weather History Graph

Search for Another Location

Airport or City:

Trip Planner

Search our weather history database for the weather conditions in past years. The results will help you decide how hot, cold, wet, or windy it might be!

Date:

Astronomy

Jan. 05, 2014 Rise Set
Actual Time 7:28 AM EST 5:47 PM EST
Civil Twilight 7:02 AM EST 6:13 PM EST
Nautical Twilight 6:32 AM EST 6:43 PM EST
Astronomical Twilight 6:03 AM EST 7:12 PM EST
Moon 10:32 AM EST (1/5) 10:48 PM EST (1/5)
Length of Visible Light 11h 11m
Length of Day
10h 19m
Waxing Crescent, 24% of the Moon is Illuminated
Jan 5
Waxing Crescent
Jan 7
First Quarter
Jan 15
Full
Jan 24
Last Quarter
Jan 30
New

Hourly Weather History & Observations

Time (EST) Temp. Dew Point Humidity Pressure Visibility Wind Dir Wind Speed Gust Speed Precip Events Conditions
12:53 AM 51.1 °F 48.9 °F 92% 30.10 in - ENE 3.5 mph - N/A   Unknown
1:53 AM 52.0 °F 50.0 °F 93% 30.10 in - Calm Calm - N/A   Unknown
2:53 AM 52.0 °F 50.0 °F 93% 30.08 in - NE 3.5 mph - N/A   Unknown
3:53 AM 52.0 °F 50.0 °F 93% 30.08 in - ENE 3.5 mph - N/A   Unknown
4:53 AM 51.1 °F 48.9 °F 92% 30.06 in - ENE 3.5 mph - N/A   Unknown
5:53 AM 50.0 °F 48.9 °F 96% 30.06 in - Calm Calm - N/A   Unknown
6:53 AM 50.0 °F 50.0 °F 100% 30.06 in - NNE 4.6 mph - N/A   Unknown
7:53 AM 50.0 °F 48.9 °F 96% 30.07 in - NE 4.6 mph - N/A   Unknown
8:53 AM 54.0 °F 51.1 °F 90% 30.08 in - Calm Calm - N/A   Unknown
9:53 AM 60.1 °F 53.1 °F 78% 30.08 in - Calm Calm - N/A   Unknown
10:53 AM 64.0 °F 55.0 °F 73% 30.08 in - Calm Calm - N/A   Unknown
11:53 AM 70.0 °F 59.0 °F 68% 30.04 in - Calm Calm - N/A   Unknown
12:53 PM 73.9 °F 62.1 °F 66% 30.00 in - Calm Calm - N/A   Unknown
1:53 PM 75.9 °F 62.1 °F 62% 29.98 in - South 4.6 mph - N/A   Unknown
2:53 PM 77.0 °F 62.1 °F 60% 29.96 in - South 10.4 mph - N/A   Unknown
3:53 PM 75.9 °F 63.0 °F 64% 29.97 in - SSW 10.4 mph - N/A   Unknown
4:53 PM 73.0 °F 63.0 °F 71% 29.98 in - SW 6.9 mph - N/A   Unknown
5:53 PM 69.1 °F 64.0 °F 84% 29.98 in - SSW 4.6 mph - N/A   Unknown
6:53 PM 66.0 °F 63.0 °F 90% 29.98 in - SSW 4.6 mph - N/A   Unknown
7:53 PM 64.9 °F 63.0 °F 93% 29.98 in - South 3.5 mph - N/A   Unknown
8:53 PM 64.0 °F 62.1 °F 93% 29.97 in - SSW 4.6 mph - N/A   Unknown
9:53 PM 63.0 °F 61.0 °F 93% 29.97 in - SSW 4.6 mph - N/A   Unknown
10:53 PM 62.1 °F 61.0 °F 96% 29.95 in - SW 4.6 mph - N/A   Unknown
11:53 PM 61.0 °F 60.1 °F 97% 29.94 in - SSW 5.8 mph - N/A   Unknown